contact:dominique.lefevre@mio.osupytheas.fr, maurice.libes@osupytheas.fr, didier.mallarino@osupytheas.fr
Project:EMSO http://www.emso-fr.org/EMSO-France
Depth: 2436.0 m
Title:EMSO Ligure Ouest : Data MII capteur AQUADOPP
Date,Latitude,Longitude,X_East,Y_North,Z_Up,Amplitude_X,Amplitude_Y,Amplitude_Z,Batterie,SoundSpeed,Heading,Pitch,Roll,Pressure,TIS,Speed,Direction
, degrees North, degrees East, m.s-1, m.s-1,m.s-1, 1, 1, 1, Volt, m.s-1, degree, degree, degree, dbar, degree_C, m.s-1, degree
2021-09-23T00:04:03,42.805,6.029,-0.029,0.016,-0.001,101.0,101.0,101.0,13.3,1505.2,326.8,-0.7,1.8,2470.678,13.28,0.033,298.9
2021-09-23T00:07:03,42.805,6.029,-0.059,0.003,-0.024,101.0,103.0,101.0,13.4,1505.2,330.1,-0.8,1.8,2470.607,13.28,0.059,272.9
2021-09-23T00:10:03,42.805,6.029,-0.032,0.001,-0.026,102.0,101.0,100.0,13.3,1505.2,326.3,-0.7,1.8,2470.622,13.28,0.032,271.8
2021-09-23T00:13:03,42.805,6.029,-0.011,-0.007,-0.015,102.0,100.0,101.0,13.4,1505.2,330.0,-0.7,1.8,2470.623,13.28,0.013,237.5
2021-09-23T00:16:03,42.805,6.029,-0.016,-0.005,-0.01,102.0,101.0,100.0,13.3,1505.2,327.0,-0.7,1.8,2470.632,13.28,0.016,252.6
2021-09-23T00:19:03,42.805,6.029,-0.005,0.001,-0.002,103.0,101.0,101.0,13.3,1505.2,326.3,-0.7,1.8,2470.63,13.28,0.005,281.3
2021-09-23T00:22:03,42.805,6.029,-0.017,0.0,-0.021,102.0,101.0,101.0,13.4,1505.2,327.0,-0.7,1.8,2470.609,13.28,0.017,270.0
2021-09-23T00:25:03,42.805,6.029,-0.034,0.0,0.008,100.0,102.0,101.0,13.4,1505.2,330.0,-0.8,1.8,2470.589,13.29,0.034,270.0
2021-09-23T00:28:03,42.805,6.029,-0.023,0.0,-0.004,102.0,101.0,101.0,13.3,1505.2,331.6,-0.7,1.8,2470.61,13.29,0.023,270.0
2021-09-23T00:31:03,42.805,6.029,-0.032,0.005,-0.001,101.0,102.0,102.0,13.4,1505.2,328.4,-0.7,1.8,2470.626,13.28,0.032,278.9
2021-09-23T00:34:03,42.805,6.029,-0.004,-0.007,0.015,103.0,101.0,101.0,13.4,1505.2,328.3,-0.7,1.8,2470.591,13.29,0.008,209.7
2021-09-23T00:37:03,42.805,6.029,-0.014,-0.018,-0.027,102.0,101.0,104.0,13.3,1505.2,325.6,-0.8,1.8,2470.556,13.29,0.022,217.9
2021-09-23T00:40:03,42.805,6.029,-0.026,0.021,0.023,102.0,103.0,100.0,13.4,1505.2,326.8,-0.7,1.8,2470.613,13.29,0.033,308.9
2021-09-23T00:43:03,42.805,6.029,-0.015,-0.021,-0.014,99.0,102.0,102.0,13.4,1505.2,330.1,-0.8,1.8,2470.62,13.29,0.025,215.5
2021-09-23T00:46:03,42.805,6.029,-0.029,-0.01,0.002,104.0,102.0,99.0,13.3,1505.2,330.0,-0.8,1.8,2470.593,13.29,0.03,251.0
2021-09-23T00:49:03,42.805,6.029,-0.037,0.009,-0.013,102.0,101.0,101.0,13.3,1505.2,325.1,-0.7,1.8,2470.61,13.29,0.038,283.7
2021-09-23T00:52:03,42.805,6.029,-0.028,-0.009,-0.013,101.0,102.0,101.0,13.4,1505.2,326.2,-0.8,1.8,2470.551,13.29,0.029,252.2
2021-09-23T00:55:03,42.805,6.029,-0.006,-0.013,-0.014,101.0,101.0,100.0,13.4,1505.2,328.8,-0.7,1.8,2470.563,13.29,0.014,204.8
2021-09-23T00:58:03,42.805,6.029,-0.006,0.006,0.016,102.0,103.0,101.0,13.4,1505.2,329.1,-0.8,1.8,2470.583,13.29,0.008,315.0
2021-09-23T01:04:03,42.805,6.029,-0.028,0.004,-0.019,102.0,102.0,101.0,13.4,1505.2,329.1,-0.7,1.9,2470.63,13.28,0.028,278.1
2021-09-23T01:07:03,42.805,6.029,-0.036,0.018,0.003,103.0,101.0,100.0,13.4,1505.2,326.8,-0.7,1.8,2470.603,13.28,0.04,296.6
2021-09-23T01:10:03,42.805,6.029,-0.021,0.004,0.032,101.0,101.0,100.0,13.4,1505.2,328.6,-0.8,1.8,2470.623,13.28,0.021,280.8
2021-09-23T01:13:03,42.805,6.029,-0.024,0.008,-0.006,102.0,101.0,99.0,13.4,1505.2,325.8,-0.7,1.8,2470.601,13.28,0.025,288.4
2021-09-23T01:16:03,42.805,6.029,-0.014,0.02,0.021,102.0,99.0,101.0,13.4,1505.2,329.1,-0.8,1.9,2470.585,13.28,0.024,325.0
2021-09-23T01:19:03,42.805,6.029,-0.017,-0.008,-0.023,102.0,100.0,100.0,13.4,1505.2,326.7,-0.8,1.8,2470.578,13.28,0.018,244.8
2021-09-23T01:22:03,42.805,6.029,-0.039,0.02,-0.027,103.0,99.0,101.0,13.3,1505.2,330.1,-0.8,1.8,2470.559,13.29,0.043,297.1
2021-09-23T01:25:03,42.805,6.029,-0.012,-0.001,0.002,102.0,102.0,99.0,13.4,1505.2,330.2,-0.7,1.8,2470.565,13.29,0.012,265.2
2021-09-23T01:28:03,42.805,6.029,0.003,-0.001,0.017,101.0,100.0,101.0,13.3,1505.2,329.9,-0.7,1.8,2470.565,13.29,0.003,108.4
2021-09-23T01:31:03,42.805,6.029,-0.007,-0.007,-0.009,101.0,101.0,100.0,13.3,1505.2,327.6,-0.8,1.8,2470.583,13.29,0.009,225.0
2021-09-23T01:34:03,42.805,6.029,-0.017,0.025,0.02,100.0,101.0,101.0,13.4,1505.2,328.1,-0.8,1.8,2470.558,13.29,0.03,325.8
2021-09-23T01:37:03,42.805,6.029,-0.03,0.009,0.03,102.0,103.0,99.0,13.4,1505.2,327.9,-0.8,1.8,2470.543,13.29,0.031,286.7
2021-09-23T01:40:03,42.805,6.029,-0.044,0.006,0.0,100.0,102.0,99.0,13.4,1505.2,329.2,-0.7,1.8,2470.581,13.29,0.044,277.8
2021-09-23T01:43:03,42.805,6.029,-0.011,0.009,0.015,100.0,101.0,100.0,13.4,1505.2,330.3,-0.7,1.8,2470.588,13.29,0.014,309.3
2021-09-23T01:46:03,42.805,6.029,-0.028,-0.007,-0.013,102.0,101.0,101.0,13.3,1505.2,327.1,-0.8,1.8,2470.546,13.29,0.028,256.0
2021-09-23T01:49:03,42.805,6.029,-0.029,0.003,0.006,98.0,102.0,100.0,13.4,1505.2,329.4,-0.7,1.8,2470.6,13.29,0.029,275.9
2021-09-23T01:52:03,42.805,6.029,-0.015,0.014,-0.028,104.0,101.0,99.0,13.4,1505.2,329.5,-0.8,1.8,2470.563,13.29,0.02,313.0
2021-09-23T01:55:03,42.805,6.029,-0.017,0.012,0.005,99.0,101.0,99.0,13.4,1505.2,329.5,-0.8,1.8,2470.567,13.29,0.02,305.2
2021-09-23T01:58:03,42.805,6.029,-0.007,-0.013,-0.026,102.0,101.0,99.0,13.4,1505.2,328.7,-0.8,1.8,2470.535,13.29,0.014,208.3
2021-09-23T02:04:03,42.805,6.029,0.001,0.001,0.002,101.0,101.0,100.0,13.3,1505.2,326.7,-0.8,1.8,2470.591,13.28,0.001,45.0
2021-09-23T02:07:03,42.805,6.029,-0.014,0.013,0.0,100.0,103.0,101.0,13.3,1505.2,330.6,-0.8,1.8,2470.606,13.29,0.019,312.9
2021-09-23T02:10:03,42.805,6.029,-0.018,-0.01,-0.014,101.0,100.0,100.0,13.4,1505.2,328.9,-0.8,1.8,2470.588,13.29,0.02,240.9
2021-09-23T02:13:03,42.805,6.029,-0.039,0.016,-0.026,100.0,102.0,100.0,13.3,1505.2,330.9,-0.7,1.8,2470.574,13.29,0.042,292.3
2021-09-23T02:16:03,42.805,6.029,-0.057,0.001,-0.025,101.0,101.0,100.0,13.3,1505.2,327.8,-0.8,1.8,2470.562,13.29,0.057,271.0
2021-09-23T02:19:03,42.805,6.029,-0.009,0.005,0.005,103.0,102.0,100.0,13.4,1505.2,329.2,-0.7,1.8,2470.527,13.29,0.01,299.1
2021-09-23T02:22:03,42.805,6.029,-0.006,0.008,-0.006,102.0,102.0,100.0,13.3,1505.2,329.1,-0.7,1.8,2470.547,13.29,0.01,323.1
2021-09-23T02:25:03,42.805,6.029,0.003,0.008,0.016,102.0,100.0,101.0,13.4,1505.2,325.5,-0.7,1.8,2470.557,13.29,0.008,20.6
2021-09-23T02:28:03,42.805,6.029,-0.011,0.008,0.024,101.0,101.0,100.0,13.3,1505.2,329.5,-0.7,1.8,2470.532,13.29,0.013,306.0
2021-09-23T02:31:03,42.805,6.029,-0.023,0.01,-0.014,99.0,100.0,101.0,13.4,1505.2,327.0,-0.7,1.8,2470.552,13.29,0.025,293.5
2021-09-23T02:34:03,42.805,6.029,-0.025,-0.007,-0.016,100.0,100.0,100.0,13.4,1505.2,327.1,-0.8,1.8,2470.527,13.29,0.025,254.4
2021-09-23T02:37:03,42.805,6.029,-0.017,0.008,0.005,100.0,101.0,100.0,13.4,1505.2,327.9,-0.7,1.8,2470.533,13.29,0.018,295.2
2021-09-23T02:40:03,42.805,6.029,-0.026,0.011,0.015,103.0,101.0,101.0,13.3,1505.2,329.4,-0.8,1.8,2470.557,13.29,0.028,292.9
2021-09-23T02:43:03,42.805,6.029,-0.023,0.0,-0.024,101.0,100.0,101.0,13.3,1505.2,328.8,-0.7,1.8,2470.542,13.29,0.023,270.0
2021-09-23T02:46:03,42.805,6.029,-0.02,0.0,-0.004,99.0,100.0,103.0,13.4,1505.2,329.7,-0.7,1.8,2470.522,13.29,0.02,270.0
2021-09-23T02:49:03,42.805,6.029,-0.026,0.005,0.011,104.0,101.0,101.0,13.4,1505.2,326.6,-0.7,1.8,2470.519,13.29,0.026,280.9
2021-09-23T02:52:03,42.805,6.029,-0.04,0.002,-0.006,101.0,102.0,100.0,13.4,1505.2,328.6,-0.8,1.8,2470.52,13.29,0.04,272.9
2021-09-23T02:55:03,42.805,6.029,-0.015,0.0,-0.017,101.0,101.0,101.0,13.4,1505.2,325.2,-0.8,1.8,2470.511,13.29,0.015,270.0
2021-09-23T02:58:03,42.805,6.029,-0.016,0.02,0.007,101.0,102.0,99.0,13.4,1505.2,326.1,-0.8,1.8,2470.475,13.29,0.025,321.3
2021-09-23T03:04:03,42.805,6.029,-0.005,-0.015,-0.009,102.0,103.0,99.0,13.4,1505.2,325.7,-0.7,1.8,2470.58,13.29,0.015,198.4
2021-09-23T03:07:03,42.805,6.029,-0.003,0.006,-0.004,101.0,101.0,100.0,13.3,1505.2,330.3,-0.7,1.8,2470.594,13.29,0.006,333.4
2021-09-23T03:10:03,42.805,6.029,-0.028,-0.005,-0.013,100.0,101.0,100.0,13.4,1505.2,329.3,-0.7,1.8,2470.551,13.29,0.028,259.9
2021-09-23T03:13:03,42.805,6.029,-0.015,-0.001,0.007,102.0,102.0,100.0,13.4,1505.2,329.8,-0.7,1.8,2470.553,13.29,0.015,266.2
2021-09-23T03:16:03,42.805,6.029,0.014,-0.002,-0.004,100.0,100.0,102.0,13.4,1505.2,329.6,-0.8,1.8,2470.552,13.29,0.014,98.1
2021-09-23T03:19:03,42.805,6.029,-0.02,-0.007,-0.031,101.0,101.0,100.0,13.3,1505.2,327.7,-0.8,1.8,2470.523,13.29,0.021,250.7
2021-09-23T03:22:03,42.805,6.029,-0.025,-0.013,-0.024,100.0,99.0,101.0,13.4,1505.2,328.8,-0.8,1.8,2470.54,13.29,0.028,242.5
2021-09-23T03:25:03,42.805,6.029,-0.01,0.004,-0.008,102.0,99.0,100.0,13.4,1505.2,329.9,-0.7,1.8,2470.522,13.29,0.01,291.8
2021-09-23T03:28:03,42.805,6.029,-0.013,0.0,-0.006,101.0,100.0,101.0,13.4,1505.2,331.5,-0.8,1.8,2470.507,13.29,0.013,270.0
2021-09-23T03:31:03,42.805,6.029,0.01,-0.003,0.016,98.0,100.0,101.0,13.4,1505.2,330.4,-0.7,1.8,2470.504,13.29,0.01,106.7
2021-09-23T03:34:03,42.805,6.029,-0.02,0.0,-0.046,100.0,101.0,100.0,13.3,1505.2,330.3,-0.8,1.8,2470.527,13.29,0.02,270.0
2021-09-23T03:37:03,42.805,6.029,-0.017,-0.01,-0.009,100.0,100.0,101.0,13.4,1505.2,327.9,-0.8,1.8,2470.484,13.29,0.019,239.5
2021-09-23T03:40:03,42.805,6.029,-0.012,-0.01,0.001,102.0,100.0,100.0,13.4,1505.2,326.2,-0.8,1.8,2470.531,13.29,0.015,230.2
2021-09-23T03:43:03,42.805,6.029,0.001,-0.004,-0.022,101.0,101.0,100.0,13.4,1505.2,328.8,-0.8,1.8,2470.517,13.29,0.004,166.0
2021-09-23T03:46:03,42.805,6.029,-0.007,0.019,0.011,100.0,100.0,100.0,13.4,1505.2,326.2,-0.8,1.8,2470.519,13.29,0.02,339.8
2021-09-23T03:49:03,42.805,6.029,-0.029,0.012,-0.008,102.0,99.0,100.0,13.4,1505.2,330.0,-0.7,1.8,2470.483,13.29,0.031,292.5
2021-09-23T03:52:03,42.805,6.029,-0.026,0.0,-0.015,101.0,102.0,100.0,13.3,1505.2,326.3,-0.8,1.8,2470.512,13.29,0.026,270.0
2021-09-23T03:55:03,42.805,6.029,0.008,0.001,-0.024,100.0,100.0,101.0,13.4,1505.2,325.5,-0.7,1.8,2470.526,13.29,0.008,82.9
2021-09-23T03:58:03,42.805,6.029,-0.022,-0.011,-0.017,100.0,101.0,101.0,13.4,1505.2,327.1,-0.7,1.8,2470.474,13.29,0.024,243.4
2021-09-23T04:04:03,42.805,6.029,-0.019,0.006,-0.031,101.0,101.0,100.0,13.4,1505.2,327.3,-0.7,1.8,2470.548,13.29,0.019,287.5
2021-09-23T04:07:03,42.805,6.029,0.008,-0.006,0.018,100.0,101.0,102.0,13.4,1505.2,326.9,-0.8,1.8,2470.571,13.29,0.01,126.9
2021-09-23T04:10:03,42.805,6.029,0.013,-0.019,0.007,101.0,101.0,100.0,13.3,1505.2,329.4,-0.7,1.8,2470.522,13.29,0.023,145.6
2021-09-23T04:13:03,42.805,6.029,-0.001,-0.005,-0.018,100.0,102.0,100.0,13.4,1505.2,329.3,-0.8,1.8,2470.534,13.29,0.005,191.3
2021-09-23T04:16:03,42.805,6.029,-0.015,-0.001,0.004,100.0,100.0,100.0,13.3,1505.2,326.1,-0.8,1.8,2470.56,13.29,0.015,266.2
2021-09-23T04:19:03,42.805,6.029,-0.012,-0.004,-0.018,101.0,100.0,100.0,13.4,1505.2,331.3,-0.8,1.8,2470.552,13.29,0.012,251.6
2021-09-23T04:22:03,42.805,6.029,-0.021,0.006,-0.031,101.0,101.0,101.0,13.4,1505.2,328.2,-0.8,1.8,2470.565,13.29,0.021,285.9
2021-09-23T04:25:03,42.805,6.029,-0.017,0.003,0.006,100.0,101.0,99.0,13.4,1505.2,330.2,-0.7,1.8,2470.553,13.29,0.017,280.0
2021-09-23T04:28:03,42.805,6.029,-0.015,0.005,-0.005,101.0,102.0,100.0,13.4,1505.2,329.9,-0.8,1.8,2470.544,13.29,0.015,288.4
2021-09-23T04:31:03,42.805,6.029,-0.024,0.014,0.011,100.0,100.0,100.0,13.3,1505.2,329.3,-0.8,1.9,2470.564,13.29,0.027,300.3
2021-09-23T04:34:03,42.805,6.029,-0.024,-0.003,-0.018,98.0,102.0,101.0,13.4,1505.2,329.9,-0.7,1.8,2470.531,13.29,0.024,262.9
2021-09-23T04:37:03,42.805,6.029,0.0,-0.01,-0.009,102.0,101.0,100.0,13.4,1505.2,327.5,-0.7,1.8,2470.567,13.29,0.01,180.0
2021-09-23T04:40:03,42.805,6.029,-0.025,0.006,0.005,101.0,101.0,99.0,13.3,1505.2,327.3,-0.7,1.8,2470.559,13.29,0.025,283.5
2021-09-23T04:43:03,42.805,6.029,-0.012,0.006,-0.007,103.0,102.0,100.0,13.4,1505.2,327.1,-0.7,1.8,2470.585,13.29,0.013,296.6
2021-09-23T04:46:03,42.805,6.029,-0.011,0.005,-0.014,103.0,104.0,100.0,13.4,1505.2,328.4,-0.8,1.8,2470.564,13.29,0.012,294.4
2021-09-23T04:49:03,42.805,6.029,-0.007,-0.007,-0.022,100.0,101.0,102.0,13.4,1505.2,328.3,-0.7,1.8,2470.579,13.29,0.009,225.0
2021-09-23T04:52:03,42.805,6.029,-0.019,0.007,0.013,100.0,100.0,101.0,13.4,1505.2,328.3,-0.8,1.8,2470.556,13.29,0.02,290.2
2021-09-23T04:55:03,42.805,6.029,-0.005,0.001,0.026,101.0,103.0,100.0,13.4,1505.2,327.1,-0.7,1.8,2470.542,13.29,0.005,281.3
2021-09-23T04:58:03,42.805,6.029,-0.01,0.01,0.004,102.0,100.0,100.0,13.4,1505.2,326.5,-0.8,1.8,2470.546,13.29,0.014,315.0
2021-09-23T05:04:03,42.805,6.029,0.007,0.01,0.001,98.0,103.0,100.0,13.4,1505.2,325.7,-0.7,1.8,2470.622,13.29,0.012,35.0
2021-09-23T05:07:03,42.805,6.029,0.008,-0.014,-0.008,103.0,99.0,100.0,13.3,1505.2,326.4,-0.8,1.9,2470.601,13.29,0.016,150.3
2021-09-23T05:10:03,42.805,6.029,-0.025,0.01,0.007,101.0,100.0,100.0,13.4,1505.2,327.8,-0.8,1.9,2470.574,13.29,0.026,291.8
2021-09-23T05:13:03,42.805,6.029,0.0,-0.012,0.013,102.0,98.0,100.0,13.3,1505.2,326.8,-0.7,1.8,2470.587,13.29,0.012,180.0
2021-09-23T05:16:03,42.805,6.029,-0.011,-0.007,-0.026,99.0,102.0,101.0,13.3,1505.2,328.4,-0.7,1.8,2470.632,13.29,0.013,237.5
2021-09-23T05:19:03,42.805,6.029,-0.005,0.013,0.003,100.0,101.0,100.0,13.4,1505.2,330.1,-0.7,1.9,2470.647,13.29,0.013,339.0
2021-09-23T05:22:03,42.805,6.029,-0.007,-0.002,-0.004,101.0,101.0,100.0,13.4,1505.2,327.8,-0.7,1.9,2470.614,13.29,0.007,254.1
2021-09-23T05:25:03,42.805,6.029,0.001,-0.004,0.0,102.0,99.0,100.0,13.4,1505.2,329.9,-0.8,1.8,2470.59,13.29,0.004,166.0
2021-09-23T05:28:03,42.805,6.029,-0.015,0.002,-0.01,101.0,100.0,101.0,13.4,1505.2,329.1,-0.8,1.8,2470.612,13.29,0.015,277.6
2021-09-23T05:31:03,42.805,6.029,0.004,0.013,0.004,100.0,101.0,100.0,13.4,1505.2,325.4,-0.7,1.8,2470.627,13.29,0.013,17.1
2021-09-23T05:34:03,42.805,6.029,0.003,-0.001,0.009,100.0,101.0,100.0,13.3,1505.2,329.7,-0.8,1.8,2470.628,13.29,0.003,108.4
2021-09-23T05:37:03,42.805,6.029,-0.007,0.018,0.012,101.0,100.0,102.0,13.4,1505.2,331.0,-0.8,1.8,2470.574,13.29,0.019,338.8
2021-09-23T05:40:03,42.805,6.029,-0.016,0.0,0.009,102.0,101.0,99.0,13.4,1505.2,327.7,-0.8,1.8,2470.61,13.29,0.016,270.0
2021-09-23T05:43:03,42.805,6.029,-0.017,0.008,-0.015,102.0,102.0,100.0,13.4,1505.2,326.3,-0.7,1.8,2470.638,13.29,0.018,295.2
2021-09-23T05:46:03,42.805,6.029,-0.002,-0.015,-0.015,101.0,101.0,100.0,13.4,1505.2,326.8,-0.8,1.9,2470.624,13.29,0.015,187.6
2021-09-23T05:49:03,42.805,6.029,0.016,-0.011,-0.034,101.0,105.0,100.0,13.4,1505.2,327.3,-0.8,1.8,2470.674,13.29,0.019,124.5
2021-09-23T05:52:03,42.805,6.029,0.001,-0.006,0.012,101.0,102.0,102.0,13.4,1505.2,327.3,-0.7,1.8,2470.622,13.29,0.006,170.5
2021-09-23T05:55:03,42.805,6.029,0.0,0.019,0.003,99.0,102.0,100.0,13.4,1505.2,328.6,-0.8,1.8,2470.619,13.29,0.019,0.0
2021-09-23T05:58:03,42.805,6.029,0.023,-0.031,-0.031,99.0,101.0,99.0,13.4,1505.2,327.1,-0.7,1.8,2470.651,13.29,0.038,143.4
2021-09-23T06:04:03,42.805,6.029,-0.013,-0.001,-0.014,101.0,102.0,101.0,13.4,1505.2,328.4,-0.7,1.8,2470.686,13.29,0.013,265.6
2021-09-23T06:07:03,42.805,6.029,-0.035,-0.002,-0.026,104.0,102.0,103.0,13.4,1505.2,326.0,-0.7,1.8,2470.656,13.29,0.035,266.7
2021-09-23T06:10:03,42.805,6.029,-0.007,0.011,0.0,102.0,100.0,101.0,13.3,1505.2,329.4,-0.8,1.8,2470.681,13.29,0.013,327.5
2021-09-23T06:13:03,42.805,6.029,0.006,0.002,-0.005,100.0,100.0,99.0,13.4,1505.2,327.4,-0.7,1.8,2470.629,13.29,0.006,71.6
2021-09-23T06:16:03,42.805,6.029,-0.025,0.005,-0.016,102.0,100.0,100.0,13.4,1505.2,329.5,-0.8,1.8,2470.656,13.29,0.025,281.3
2021-09-23T06:19:03,42.805,6.029,0.005,0.011,-0.006,101.0,100.0,100.0,13.4,1505.2,325.2,-0.7,1.8,2470.666,13.29,0.012,24.4
2021-09-23T06:22:03,42.805,6.029,-0.01,0.004,0.015,102.0,100.0,98.0,13.4,1505.2,329.9,-0.8,1.8,2470.656,13.29,0.01,291.8
2021-09-23T06:25:03,42.805,6.029,-0.001,-0.006,-0.011,100.0,100.0,100.0,13.4,1505.2,328.0,-0.7,1.8,2470.664,13.29,0.006,189.5
2021-09-23T06:28:03,42.805,6.029,0.007,0.003,0.006,100.0,103.0,100.0,13.4,1505.2,326.1,-0.7,1.8,2470.65,13.29,0.007,66.8
2021-09-23T06:31:03,42.805,6.029,0.028,-0.03,-0.015,101.0,101.0,98.0,13.4,1505.2,326.7,-0.7,1.8,2470.679,13.29,0.041,137.0
2021-09-23T06:34:03,42.805,6.029,0.033,-0.019,-0.016,101.0,100.0,102.0,13.4,1505.2,328.9,-0.8,1.8,2470.668,13.29,0.038,119.9
2021-09-23T06:37:03,42.805,6.029,0.014,-0.002,-0.005,100.0,101.0,100.0,13.4,1505.2,327.5,-0.7,1.9,2470.688,13.28,0.014,98.1
2021-09-23T06:40:03,42.805,6.029,-0.002,0.0,0.03,100.0,101.0,100.0,13.3,1505.2,329.6,-0.8,1.8,2470.679,13.28,0.002,270.0
2021-09-23T06:43:03,42.805,6.029,-0.016,0.0,0.026,102.0,100.0,99.0,13.4,1505.2,330.4,-0.8,1.9,2470.69,13.28,0.016,270.0
2021-09-23T06:46:03,42.805,6.029,-0.001,-0.026,-0.044,100.0,100.0,100.0,13.4,1505.2,327.3,-0.8,1.8,2470.695,13.28,0.026,182.2
2021-09-23T06:49:03,42.805,6.029,-0.01,0.009,0.01,101.0,98.0,99.0,13.3,1505.2,328.4,-0.8,1.9,2470.683,13.28,0.013,312.0
2021-09-23T06:52:03,42.805,6.029,0.0,-0.007,-0.022,100.0,102.0,100.0,13.4,1505.2,329.4,-0.8,1.8,2470.665,13.28,0.007,180.0
2021-09-23T06:55:03,42.805,6.029,-0.034,0.017,0.02,99.0,101.0,99.0,13.4,1505.2,329.9,-0.8,1.8,2470.69,13.28,0.038,296.6
2021-09-23T06:58:03,42.805,6.029,-0.013,-0.014,-0.035,101.0,99.0,99.0,13.3,1505.2,327.7,-0.7,1.8,2470.688,13.28,0.019,222.9
2021-09-23T07:04:03,42.805,6.029,-0.011,-0.026,-0.022,100.0,99.0,99.0,13.4,1505.2,329.9,-0.8,1.8,2470.719,13.28,0.028,202.9
2021-09-23T07:07:03,42.805,6.029,0.019,-0.024,-0.013,101.0,103.0,100.0,13.3,1505.2,325.6,-0.7,1.9,2470.735,13.28,0.03,141.6
2021-09-23T07:10:03,42.805,6.029,0.01,-0.013,-0.009,101.0,102.0,98.0,13.4,1505.2,329.1,-0.7,1.8,2470.706,13.28,0.016,142.4
2021-09-23T07:13:03,42.805,6.029,-0.003,-0.014,0.032,103.0,100.0,100.0,13.4,1505.2,326.8,-0.7,1.8,2470.724,13.28,0.014,192.1
2021-09-23T07:16:03,42.805,6.029,0.012,-0.015,0.01,101.0,99.0,99.0,13.4,1505.2,327.5,-0.7,1.8,2470.692,13.28,0.019,141.3
2021-09-23T07:19:03,42.805,6.029,0.007,0.009,0.031,101.0,100.0,99.0,13.3,1505.2,329.3,-0.8,1.8,2470.713,13.28,0.011,37.9
2021-09-23T07:22:03,42.805,6.029,0.009,-0.013,-0.017,101.0,99.0,100.0,13.4,1505.2,325.5,-0.8,1.8,2470.729,13.28,0.015,145.3
2021-09-23T07:25:03,42.805,6.029,-0.003,0.007,0.028,99.0,105.0,100.0,13.4,1505.2,325.5,-0.8,1.9,2470.686,13.28,0.007,336.8
2021-09-23T07:28:03,42.805,6.029,-0.007,-0.009,-0.021,100.0,102.0,100.0,13.3,1505.2,325.2,-0.7,1.8,2470.721,13.28,0.011,217.9
2021-09-23T07:31:03,42.805,6.029,0.0,-0.002,-0.012,102.0,100.0,100.0,13.4,1505.2,326.7,-0.8,1.8,2470.712,13.28,0.002,180.0
2021-09-23T07:34:03,42.805,6.029,-0.008,-0.014,-0.037,99.0,100.0,100.0,13.4,1505.2,329.7,-0.8,1.8,2470.721,13.28,0.016,209.7
2021-09-23T07:37:03,42.805,6.029,-0.007,-0.009,-0.02,101.0,102.0,100.0,13.4,1505.2,327.7,-0.8,1.8,2470.73,13.28,0.011,217.9
2021-09-23T07:40:03,42.805,6.029,0.011,-0.003,-0.006,100.0,99.0,99.0,13.4,1505.2,330.0,-0.8,1.8,2470.682,13.28,0.011,105.3
2021-09-23T07:43:03,42.805,6.029,-0.01,-0.001,-0.02,100.0,100.0,100.0,13.4,1505.2,329.3,-0.7,1.8,2470.677,13.28,0.01,264.3
2021-09-23T07:46:03,42.805,6.029,0.021,0.007,0.007,101.0,99.0,99.0,13.3,1505.2,329.7,-0.7,1.8,2470.706,13.28,0.022,71.6
2021-09-23T07:49:03,42.805,6.029,0.025,-0.025,-0.018,100.0,99.0,100.0,13.4,1505.2,329.0,-0.8,1.9,2470.686,13.28,0.035,135.0
2021-09-23T07:52:03,42.805,6.029,0.025,-0.025,-0.01,100.0,100.0,101.0,13.3,1505.2,329.3,-0.7,1.8,2470.725,13.28,0.035,135.0
2021-09-23T07:55:03,42.805,6.029,-0.004,-0.001,-0.007,99.0,99.0,100.0,13.4,1505.2,328.3,-0.7,1.8,2470.721,13.28,0.004,256.0
2021-09-23T07:58:03,42.805,6.029,0.007,-0.013,-0.009,100.0,100.0,99.0,13.4,1505.2,328.7,-0.8,1.8,2470.685,13.28,0.014,151.7
2021-09-23T08:04:03,42.805,6.029,0.011,0.006,0.015,99.0,99.0,103.0,13.4,1505.2,328.5,-0.8,1.8,2470.751,13.28,0.012,61.4
2021-09-23T08:07:03,42.805,6.029,-0.009,-0.023,-0.015,102.0,100.0,101.0,13.4,1505.2,326.9,-0.8,1.8,2470.734,13.28,0.024,201.4
2021-09-23T08:10:03,42.805,6.029,0.02,-0.022,-0.012,101.0,99.0,99.0,13.3,1505.2,331.4,-0.8,1.8,2470.739,13.28,0.029,137.7
2021-09-23T08:13:03,42.805,6.029,-0.029,-0.007,-0.033,99.0,101.0,100.0,13.4,1505.2,327.5,-0.8,1.8,2470.784,13.28,0.029,256.4
2021-09-23T08:16:03,42.805,6.029,0.014,-0.015,0.004,101.0,100.0,99.0,13.4,1505.2,325.5,-0.8,1.8,2470.714,13.28,0.02,137.0
2021-09-23T08:19:03,42.805,6.029,-0.024,0.011,0.0,100.0,100.0,99.0,13.4,1505.2,329.5,-0.7,1.9,2470.737,13.28,0.026,294.6
2021-09-23T08:22:03,42.805,6.029,0.009,-0.03,-0.027,99.0,100.0,101.0,13.4,1505.2,327.0,-0.8,1.8,2470.742,13.28,0.031,163.3
2021-09-23T08:25:03,42.805,6.029,-0.006,-0.004,-0.037,98.0,99.0,102.0,13.4,1505.2,327.6,-0.7,1.8,2470.72,13.28,0.007,236.3
2021-09-23T08:28:03,42.805,6.029,0.0,-0.007,-0.001,102.0,100.0,100.0,13.4,1505.2,328.6,-0.8,1.8,2470.727,13.28,0.007,180.0
2021-09-23T08:31:03,42.805,6.029,-0.01,-0.005,-0.009,100.0,100.0,99.0,13.3,1505.2,328.0,-0.8,1.8,2470.681,13.28,0.011,243.4
2021-09-23T08:34:03,42.805,6.029,-0.014,-0.005,-0.009,99.0,100.0,99.0,13.4,1505.2,326.6,-0.8,1.8,2470.75,13.28,0.014,250.4
2021-09-23T08:37:03,42.805,6.029,-0.008,-0.001,-0.024,100.0,101.0,100.0,13.4,1505.2,330.0,-0.8,1.8,2470.712,13.28,0.008,262.9
2021-09-23T08:40:03,42.805,6.029,-0.02,0.0,-0.015,99.0,100.0,99.0,13.3,1505.2,327.5,-0.7,1.8,2470.698,13.28,0.02,270.0
2021-09-23T08:43:03,42.805,6.029,-0.002,-0.001,-0.002,100.0,100.0,100.0,13.3,1505.2,327.9,-0.7,1.8,2470.697,13.28,0.002,243.4
2021-09-23T08:46:03,42.805,6.029,-0.008,-0.006,-0.014,99.0,101.0,99.0,13.3,1505.2,325.5,-0.8,1.8,2470.737,13.28,0.01,233.1
2021-09-23T08:49:03,42.805,6.029,-0.013,-0.002,0.003,100.0,101.0,99.0,13.3,1505.2,327.5,-0.8,1.8,2470.717,13.28,0.013,261.3
2021-09-23T08:52:03,42.805,6.029,0.023,-0.026,-0.008,100.0,100.0,99.0,13.4,1505.2,328.1,-0.8,1.8,2470.718,13.28,0.034,138.5
2021-09-23T08:55:03,42.805,6.029,-0.004,-0.024,-0.015,99.0,102.0,99.0,13.4,1505.2,328.8,-0.7,1.8,2470.698,13.28,0.024,189.5
2021-09-23T08:58:03,42.805,6.029,0.004,-0.004,0.054,100.0,100.0,100.0,13.3,1505.2,326.0,-0.7,1.8,2470.733,13.28,0.005,135.0
2021-09-23T09:04:03,42.805,6.029,0.032,-0.032,-0.03,100.0,100.0,98.0,13.3,1505.2,331.5,-0.8,1.8,2470.747,13.28,0.045,135.0
2021-09-23T09:07:03,42.805,6.029,0.008,-0.007,-0.001,100.0,99.0,100.0,13.3,1505.2,326.7,-0.8,1.8,2470.746,13.28,0.01,131.2
2021-09-23T09:10:03,42.805,6.029,0.009,-0.009,-0.046,101.0,100.0,99.0,13.4,1505.2,325.2,-0.8,1.8,2470.719,13.28,0.012,135.0
2021-09-23T09:13:03,42.805,6.029,0.01,-0.009,0.002,102.0,100.0,99.0,13.3,1505.2,328.9,-0.7,1.8,2470.71,13.28,0.013,132.0
2021-09-23T09:16:03,42.805,6.029,-0.019,-0.017,-0.045,100.0,99.0,101.0,13.4,1505.2,327.2,-0.7,1.8,2470.717,13.28,0.025,228.2
2021-09-23T09:19:03,42.805,6.029,-0.006,0.005,-0.015,100.0,100.0,100.0,13.4,1505.2,327.9,-0.7,1.8,2470.74,13.28,0.007,309.8
2021-09-23T09:22:03,42.805,6.029,-0.007,-0.022,-0.021,100.0,99.0,99.0,13.4,1505.2,328.3,-0.8,1.8,2470.725,13.28,0.023,197.6
2021-09-23T09:25:03,42.805,6.029,0.004,0.009,-0.002,101.0,100.0,100.0,13.4,1505.2,330.7,-0.8,1.8,2470.699,13.28,0.009,24.0
2021-09-23T09:28:03,42.805,6.029,-0.005,-0.009,-0.016,102.0,101.0,101.0,13.4,1505.2,326.7,-0.7,1.8,2470.721,13.28,0.01,209.1
2021-09-23T09:31:03,42.805,6.029,0.0,-0.028,-0.022,101.0,101.0,100.0,13.4,1505.2,329.2,-0.8,1.8,2470.712,13.28,0.028,180.0
2021-09-23T09:34:03,42.805,6.029,-0.002,-0.013,-0.008,100.0,100.0,100.0,13.4,1505.2,329.6,-0.8,1.8,2470.714,13.28,0.013,188.7
2021-09-23T09:37:03,42.805,6.029,0.021,-0.008,-0.01,100.0,102.0,100.0,13.4,1505.2,329.1,-0.8,1.8,2470.707,13.29,0.022,110.9
2021-09-23T09:40:03,42.805,6.029,0.001,-0.003,-0.038,101.0,101.0,100.0,13.4,1505.2,328.7,-0.8,1.8,2470.656,13.29,0.003,161.6
2021-09-23T09:43:03,42.805,6.029,0.003,0.006,0.013,100.0,100.0,100.0,13.3,1505.2,328.0,-0.7,1.8,2470.675,13.29,0.006,26.6
2021-09-23T09:46:03,42.805,6.029,0.0,-0.014,-0.004,99.0,101.0,101.0,13.4,1505.2,327.4,-0.7,1.8,2470.72,13.29,0.014,180.0
2021-09-23T09:49:03,42.805,6.029,0.006,-0.005,-0.039,102.0,99.0,99.0,13.4,1505.2,326.6,-0.8,1.8,2470.656,13.29,0.007,129.8
2021-09-23T09:52:03,42.805,6.029,0.015,-0.006,-0.016,100.0,102.0,101.0,13.4,1505.2,329.4,-0.7,1.8,2470.695,13.29,0.016,111.8
2021-09-23T09:55:03,42.805,6.029,-0.015,0.004,0.0,101.0,102.0,99.0,13.4,1505.2,325.8,-0.8,1.8,2470.692,13.29,0.015,284.9
2021-09-23T09:58:03,42.805,6.029,0.01,-0.003,-0.006,102.0,101.0,100.0,13.3,1505.2,327.7,-0.8,1.8,2470.664,13.29,0.01,106.7